DMSP 5D-2 F11 DEB, 28310

Orbit data source: Space-Track

DMSP 5D-2 F11 DEB, 28310 is space debris in SSO originally from a launch on Thu, 28 Nov 1991 UTC launched from the Air Force Western Test Range (AFWTR). Debris objects in space refer to the collection of defunct objects orbiting the Earth. Examples of debris include non-operational satellites, rocket bodies, and fragments generated from explosions, collisions, or faulty payload assembly.

Not visible in the next 10 days
Identifier
28310, 1991-082X
Orbit
SSO
Country
Flag of USUS
Related business
Manufacturer
Unknown
Mission
Spacecraft
Bus & Motor
Unknown
Mass
Unknown
Launch date (UTC)
1991-11-28 (34 years ago)
Launch vehicle
Unknown
Launch site
Air Force Western Test Range (AFWTR)
Object type
Payload
Rocket body
Debris
Shape & HBR
Unknown shape, 0.1 m
Radar Cross Section
Small (<0.1 m²)

Expand to show TLE details & history
Last TLE update: 3 months ago

TLE from 3 months ago
0 DMSP 5D-2 F11 DEB
1 28310U 91082X   25269.80303376  .00241340  00000-0  11850-1 0  9998
2 28310  98.5436  30.4471 0006004 255.4880 104.5684 15.16918462120871
Epoch: 2025-09-26T19:16Z
TLE epoch observation values (Epoch: 2025-09-26T19:16:22.116Z)
Latitude
-0.00006°
Longitude
95.51039°
Altitude
519.255 km
Speed
7.603 km/s
True Right ascension
02h 01m 47s
True Declination
0° 00' 00"
Sunlit
Object was in full shadow at epoch
Visualization orbit readout
Latitude
Unknown
Longitude
Unknown
Altitude
Unknown
Speed
Unknown
Apparent Right ascension
Unknown
Apparent Declination
Unknown
Sunlit
N/A
Visualization observer readout
Local Sidereal Time
08:42:46
Azimuth
Unknown
Elevation
Unknown
Doppler factor
Unknown
Orbital elements
Apogee altitude
516.32 km
Perigee altitude
508.046 km
Semi-major axis
6,890.32 km
Eccentricity
0.0006
Inclination
98.5436°
RAAN
30.4471°
Arg. of periapsis
255.488°
True anomaly
104.63498°
Mean anomaly
104.5684°
Eccentric anomaly
104.60169°
Mean motion
3.79476 °/min
Orbital period
94.87 mins
BSTAR
0.01185
Loading maneuver chart data...
Computing Atmospheric mass density...
Loading historical data...
Loading historical data...
Loading historical data...
Loading historical data...
Loading historical data...
Loading historical data...
Loading historical data...

Documentation

Showing up to 5 results
|